Temp
16 17 17 17 18 18 18 18 19 19 19 19 20 20 20 20 20 20 20 20 20 20 20 20 21 21 21 22 21 22 22 22 22 20 20 25 28 27 27 27 27 27 27 25 24 24 24 24 24 24 24 23 23 23 24 24 24 24 23 22 21 21 21 21 22 22 22 23 21 18 19 21 20 19 20 20 19 19 19 19 18 18 17 17 18 18 19 19
16 16 17 17 17 18 18 18 19 19 19 20 20 20 20 20 21 21 20 20 20 20 20 20 20 21 21 21 21 22 22 22 20 19 22 28 28 26 26 26 26 26 26 25 24 24 24 24 24 24 24 24 23 23 24 24 24 24 22 21 21 22 22 22 23 22 22 23 22 19 19 20 21 20 20 20 19 19 19 19 18 19 18 17 17 17 18 18
16 16 17 17 17 18 18 18 19 19 19 20 20 20 20 20 21 21 21 21 20 20 20 20 20 20 21 21 21 22 21 20 20 22 26 29 27 27 27 26 26 26 26 25 25 24 24 25 24 24 24 24 23 23 24 23 23 23 22 22 22 22 23 22 23 23 22 22 22 20 19 20 20 20 20 20 19 19 19 20 19 19 19 18 17 16 17 17
16 16 17 17 17 18 18 18 19 19 19 19 20 20 20 20 21 21 21 21 21 21 20 20 20 20 20 20 20 21 21 21 24 27 28 28 28 28 28 27 26 25 25 26 26 25 24 24 24 24 24 23 23 22 23 23 23 23 22 23 23 22 23 23 23 23 22 22 22 20 19 20 20 20 20 20 20 19 20 20 20 21 20 18 17 16 16 16
16 16 17 17 17 18 18 18 19 19 19 20 20 20 20 20 21 21 21 21 22 21 20 20 20 20 20 20 20 20 21 23 27 28 28 28 28 28 28 28 26 25 24 25 25 25 24 24 24 24 23 22 22 22 23 23 23 23 23 23 23 22 22 24 24 22 21 21 21 20 20 21 20 20 20 20 21 22 21 21 21 22 20 18 17 16 16 16
16 16 17 17 17 18 18 18 18 19 19 20 20 20 20 20 21 21 21 21 22 21 21 20 20 20 19 20 20 20 22 25 27 28 29 29 29 28 28 27 25 24 24 25 25 24 24 24 24 24 23 22 23 23 24 23 23 23 23 23 23 22 22 24 24 22 21 21 21 21 21 21 20 21 20 20 22 22 20 20 20 20 19 17 17 16 16 17
17 17 17 17 17 18 18 18 19 19 19 20 20 20 20 20 21 21 21 22 22 22 21 20 20 20 19 19 19 20 22 25 27 29 29 28 28 28 28 27 25 23 24 24 24 24 24 24 24 24 23 23 23 24 24 23 22 23 23 23 23 23 22 24 23 22 22 22 22 21 21 21 21 21 20 20 22 21 19 19 18 18 16 16 17 17 17 17
17 17 17 17 18 18 18 18 19 19 19 20 20 21 21 21 21 21 21 22 22 22 21 21 20 19 19 18 19 21 22 25 29 29 28 28 28 28 28 26 23 23 24 24 23 24 24 24 24 24 24 24 23 23 23 23 22 22 23 23 23 23 23 23 22 22 22 22 21 21 21 21 21 21 20 21 22 20 19 18 17 17 16 17 18 17 17 17
17 17 17 18 18 18 18 18 19 19 19 20 20 21 21 21 21 22 22 22 22 22 21 21 19 19 19 18 20 23 24 27 29 29 28 28 27 27 28 26 23 23 23 23 23 23 24 24 24 24 25 24 23 23 23 23 23 23 23 23 23 23 24 23 22 23 22 21 21 21 22 21 21 21 21 22 21 19 18 17 17 17 17 17 17 17 17 17
16 17 17 18 18 18 18 18 19 19 20 20 21 21 22 22 22 22 22 22 22 22 21 20 19 19 18 18 21 23 26 29 28 28 29 28 27 26 27 26 24 23 23 23 23 24 25 25 24 24 25 24 23 23 23 23 24 24 23 23 23 23 24 23 23 23 22 22 22 22 22 21 21 21 22 22 18 17 17 17 16 17 18 17 17 17 17 17
16 17 17 17 18 18 19 19 19 19 20 21 21 22 22 23 23 23 23 23 22 22 21 20 19 18 17 18 22 24 26 28 28 28 28 28 27 27 27 27 26 24 23 22 23 24 25 25 24 24 24 24 24 23 23 23 24 24 23 24 23 23 24 23 23 22 22 22 22 22 22 21 21 21 23 21 17 17 18 17 16 17 18 17 18 17 17 17
16 16 17 17 18 18 18 19 19 19 20 21 22 23 23 23 23 23 23 23 23 22 21 19 18 18 17 18 21 24 27 27 27 27 27 27 27 27 28 27 27 26 25 23 23 25 25 25 25 25 25 24 24 23 24 24 23 23 23 24 24 24 25 24 23 22 22 23 22 22 22 22 22 22 22 19 16 17 18 17 17 17 17 17 18 17 17 16
16 16 17 17 17 18 18 19 19 20 21 22 22 23 24 24 24 24 23 23 22 22 20 19 18 17 18 20 22 25 27 27 27 26 26 26 26 27 27 27 27 27 27 25 24 24 25 25 25 25 25 24 24 24 24 24 23 23 23 23 24 24 25 24 23 22 23 23 22 23 22 22 23 22 20 17 16 17 18 18 17 17 17 17 17 17 17 16
16 16 16 17 17 18 18 19 19 20 21 22 22 23 23 23 23 23 23 22 22 21 19 18 17 17 19 22 24 26 27 26 26 26 26 26 26 26 26 26 26 26 27 26 26 25 25 25 25 25 24 24 25 24 24 24 23 23 23 22 22 22 24 25 23 23 23 22 23 24 21 22 25 23 20 17 16 18 19 18 17 17 18 17 17 17 18 17
15 16 16 17 17 18 18 19 19 20 21 21 21 22 22 22 22 22 21 21 21 20 18 17 17 18 19 22 24 26 26 25 26 26 27 27 26 26 25 25 25 25 25 25 26 26 25 25 25 25 24 24 24 24 24 24 23 22 22 22 21 21 23 25 23 23 24 22 22 24 22 22 25 23 19 16 17 18 19 18 17 18 18 17 17 17 17 17
15 16 16 16 17 18 18 19 19 20 20 20 21 21 21 20 20 20 20 20 20 18 17 17 16 17 20 23 25 26 26 26 26 28 28 27 27 26 25 24 24 25 25 25 26 25 25 25 25 24 24 24 24 24 23 23 22 22 21 21 21 21 22 23 24 23 24 23 22 23 23 23 24 21 17 17 17 18 19 18 17 18 18 17 17 17 17 17
15 15 16 16 17 18 18 19 19 20 20 19 19 20 19 19 19 20 20 19 19 18 17 17 17 17 21 24 25 26 26 27 28 28 28 28 27 26 25 24 24 24 25 26 26 25 25 25 24 23 23 22 22 23 22 21 21 21 21 21 21 21 21 22 24 23 23 23 23 22 23 24 24 20 17 17 17 18 19 19 18 17 17 17 17 17 17 17
15 15 16 16 17 18 18 19 19 20 20 18 18 19 19 19 19 20 20 19 18 18 18 18 17 19 23 24 25 25 26 26 27 28 28 28 27 26 26 25 24 24 25 25 25 25 25 24 23 23 23 22 22 23 21 21 22 22 21 21 21 21 21 21 23 24 23 24 23 22 22 23 23 20 18 17 17 18 19 19 18 17 17 17 17 18 18 17
15 15 16 16 17 18 18 19 20 20 19 18 18 18 19 19 19 19 19 18 19 20 21 20 20 23 24 24 24 25 26 27 27 28 28 27 26 26 26 25 24 25 25 25 24 24 24 24 23 23 23 22 23 23 23 23 23 23 22 22 22 21 22 22 23 24 24 24 24 23 22 23 23 22 19 18 18 18 19 19 19 18 18 18 18 18 18 18
16 16 16 16 17 18 19 19 20 20 20 18 18 18 19 19 20 20 19 18 20 21 23 22 21 23 24 24 24 25 26 27 27 27 27 27 26 25 26 25 25 25 25 24 24 24 24 23 23 23 23 23 23 23 24 23 23 23 22 22 22 21 22 23 24 24 24 24 24 23 23 23 24 22 19 18 18 18 18 19 19 19 19 19 19 19 19 19
16 16 17 17 17 18 19 19 20 20 20 19 19 20 20 19 20 20 19 19 20 20 21 22 22 22 23 24 25 25 25 25 26 27 27 27 26 25 25 25 25 24 24 24 24 24 24 23 23 23 24 24 23 23 23 23 22 23 22 22 22 21 22 24 24 24 23 24 24 23 23 23 23 22 20 18 19 19 19 19 20 20 19 19 19 19 19 19
16 16 17 17 18 19 19 20 20 20 20 20 20 20 19 19 19 19 19 19 20 20 21 21 21 22 22 23 24 25 24 24 25 26 26 27 26 26 25 25 25 24 23 24 24 23 23 22 23 24 23 23 23 22 22 22 22 22 22 22 21 21 22 23 23 23 23 23 24 23 23 24 23 22 20 19 19 19 19 19 20 20 20 19 20 20 20 19
16 16 17 17 18 19 20 20 20 20 20 20 20 20 19 19 19 19 18 19 20 21 22 21 21 21 22 22 24 24 24 24 25 26 27 26 26 26 25 25 24 23 23 24 24 22 22 23 24 24 23 23 23 22 22 22 22 22 22 21 21 22 22 22 23 23 23 23 24 23 23 24 23 22 21 20 19 20 20 20 20 20 20 20 20 20 20 20
16 16 16 17 18 20 20 20 20 19 19 19 19 20 19 19 19 18 19 20 21 22 22 22 22 22 23 24 24 24 24 24 25 26 27 26 26 25 25 25 24 23 23 23 23 23 23 24 25 23 22 23 23 22 22 22 21 22 22 22 22 22 22 23 23 23 23 23 23 23 22 23 24 23 23 21 19 20 20 20 20 20 20 20 20 20 20 20
16 16 16 17 19 20 20 20 20 18 18 19 19 20 19 19 19 18 20 21 21 22 22 22 23 24 25 24 24 24 24 24 25 26 27 27 26 26 25 25 24 23 23 23 23 23 23 24 24 23 22 22 23 23 22 22 22 21 22 23 23 23 23 23 23 23 23 22 22 23 21 22 23 23 23 21 20 20 20 21 21 20 20 20 21 21 20 20
17 16 16 18 19 20 20 20 19 18 19 20 20 20 19 20 20 19 20 21 21 23 25 24 23 25 26 24 24 24 24 25 26 26 27 27 27 27 26 25 25 24 23 23 23 23 24 25 25 24 24 23 23 23 22 22 22 21 23 24 23 23 23 23 23 22 21 21 22 22 21 21 22 24 25 22 21 21 20 20 21 21 20 20 21 21 21 21
17 17 17 18 19 20 20 19 19 19 19 20 21 20 20 21 20 20 21 20 20 24 25 24 24 25 26 25 24 25 24 26 27 26 27 28 27 27 26 25 25 24 24 24 23 23 25 25 24 24 24 23 22 23 23 22 22 22 23 24 23 23 23 23 22 22 21 21 21 22 22 21 21 24 23 21 22 21 20 21 21 21 21 21 21 21 21 21
17 17 17 18 19 19 19 18 18 19 19 20 20 21 21 21 20 21 21 20 21 24 24 25 25 26 26 25 25 26 25 26 27 26 26 28 28 27 26 25 25 24 25 24 22 24 26 25 24 24 24 23 23 24 23 22 23 23 23 23 23 23 23 22 22 22 21 21 21 21 22 21 21 23 22 20 22 22 21 21 21 21 21 21 21 21 21 21
17 17 17 19 19 18 18 18 18 19 20 20 20 21 21 21 21 22 21 20 22 24 24 25 26 25 25 24 25 26 26 26 27 27 26 27 28 28 26 25 26 25 24 25 24 25 26 25 25 25 24 24 24 24 23 23 25 23 22 22 22 22 21 21 22 22 21 21 21 21 21 21 21 22 22 21 22 23 23 22 21 22 22 21 22 21 21 21
17 17 18 19 19 18 18 18 19 19 20 20 21 21 21 21 22 21 20 20 22 23 23 24 24 23 23 24 24 25 25 25 27 27 27 27 27 27 26 26 26 25 24 25 25 25 26 25 25 25 25 25 24 23 22 23 24 23 23 24 23 23 22 21 21 22 21 21 21 21 21 21 21 22 22 22 23 24 24 23 22 22 22 22 22 22 22 22
18 17 18 19 19 18 18 18 20 20 20 21 21 21 21 21 21 20 20 21 21 22 22 22 23 23 22 22 23 23 24 25 25 26 27 27 27 27 27 26 25 24 24 24 24 25 25 25 25 26 25 25 24 23 22 23 22 23 25 24 23 22 22 22 21 21 21 21 21 21 21 21 21 22 24 24 24 24 24 25 24 22 22 23 22 22 22 22
18 18 18 19 19 18 18 18 20 20 21 21 20 21 22 21 19 20 20 21 20 20 21 21 22 22 21 22 22 22 23 24 24 24 25 26 26 26 26 25 24 23 22 22 23 24 24 25 26 26 25 25 25 23 22 22 23 24 24 22 21 21 21 21 21 21 21 21 21 20 21 21 21 23 25 25 25 24 24 25 25 23 23 23 23 22 22 21
19 19 19 19 19 19 18 19 20 21 21 21 20 21 21 20 19 19 20 20 20 20 21 21 21 21 21 22 22 22 23 23 23 23 24 25 25 25 24 23 24 23 22 22 22 22 23 24 25 25 25 26 26 24 22 22 23 23 23 22 21 20 20 21 20 20 20 21 21 20 21 21 21 24 26 26 26 26 24 24 24 24 23 23 23 22 22 21
19 19 19 19 19 19 19 20 20 21 21 20 21 21 20 20 19 18 19 19 19 20 21 21 20 21 22 22 21 22 22 22 22 22 23 23 23 23 22 22 22 23 22 22 21 21 21 22 24 25 25 26 26 26 24 23 23 22 23 23 21 21 21 21 21 21 21 21 21 20 21 21 22 24 25 25 25 24 22 23 23 23 23 23 23 22 22 21
19 20 19 19 19 19 20 20 20 21 20 19 21 21 19 19 17 17 18 18 19 20 20 20 20 21 22 21 21 21 21 22 22 22 21 21 20 20 21 21 21 21 21 22 22 22 21 22 25 26 26 26 26 26 25 24 23 21 22 22 22 22 22 21 20 20 20 21 21 20 21 22 23 24 24 23 23 23 22 23 23 23 23 23 23 22 22 21
19 20 19 19 19 20 20 20 21 21 20 20 21 19 18 18 17 18 18 18 19 19 19 20 20 20 20 20 20 20 21 21 21 21 21 20 19 19 20 20 21 20 20 20 21 21 21 22 26 26 26 26 25 25 25 25 23 22 21 22 22 23 23 21 19 19 19 20 21 20 21 22 23 25 25 24 25 24 22 23 24 23 23 23 23 22 22 21
19 19 19 18 19 20 21 21 21 20 20 20 20 18 17 17 18 18 18 18 18 18 19 20 20 19 19 19 19 19 20 21 21 21 21 20 20 19 19 19 20 20 20 20 20 21 21 22 25 26 26 25 25 26 25 25 24 23 22 23 23 23 23 22 20 20 20 20 21 20 21 22 22 23 25 26 27 26 23 23 24 23 23 23 23 22 22 22
16 17 17 18 19 20 20 21 21 20 19 19 18 17 17 18 18 18 18 18 18 19 19 18 19 19 18 18 18 18 19 20 20 20 20 19 19 20 18 18 20 20 19 20 20 22 21 21 24 26 25 25 25 26 24 24 25 24 24 24 23 22 22 21 21 21 20 20 21 21 21 21 21 23 26 27 28 28 25 23 23 23 23 23 22 22 21 22
15 17 18 18 19 20 20 21 20 20 20 19 17 17 17 18 19 18 17 18 18 18 18 17 18 18 18 18 18 18 19 19 19 20 20 18 18 20 19 18 19 19 19 20 20 21 21 21 22 24 25 25 25 24 23 23 24 24 24 24 23 23 22 21 21 21 21 20 21 21 21 21 22 24 27 28 29 28 26 24 23 23 23 23 23 22 21 22
12 17 19 18 19 20 20 20 19 19 19 17 16 17 18 18 19 18 17 18 18 18 18 17 17 17 17 18 18 18 18 18 19 19 19 18 18 20 19 18 18 18 19 20 20 19 20 21 21 23 24 24 24 24 23 23 24 23 23 22 22 23 22 22 21 21 21 21 20 21 21 22 24 25 27 30 30 28 26 25 24 23 23 23 22 22 22 22
11 18 19 18 19 20 20 20 17 16 17 16 16 17 18 18 18 18 17 18 18 18 17 17 17 17 16 17 17 17 17 18 18 18 18 17 17 18 19 18 18 17 19 19 19 19 20 20 20 21 22 22 24 25 25 25 25 24 24 22 22 22 21 21 21 20 21 21 21 21 20 23 26 24 25 28 29 28 26 25 25 23 23 23 22 22 22 22
13 19 18 17 19 19 20 19 15 14 16 17 16 17 18 18 18 17 17 17 17 17 17 17 16 16 16 17 17 17 17 17 17 17 17 17 17 17 18 18 18 18 19 19 18 19 19 19 19 20 22 23 25 26 25 26 26 25 25 23 23 22 21 21 21 21 21 20 21 21 20 23 26 23 22 25 26 26 24 24 25 24 22 22 22 22 22 22
15 17 18 17 17 18 19 18 15 15 16 16 16 16 17 17 17 17 17 17 17 17 17 16 16 16 16 16 17 17 17 17 17 17 16 16 16 17 17 17 18 18 19 18 18 19 19 19 19 21 22 23 25 25 25 26 26 25 24 24 23 23 22 22 22 21 21 21 21 21 20 24 27 24 22 24 24 24 23 24 25 25 22 22 22 22 22 22
12 12 15 16 17 19 19 17 16 16 16 16 16 17 17 17 17 17 16 16 17 17 16 16 16 16 16 16 16 16 17 16 16 17 16 15 16 17 17 17 17 18 18 19 19 19 20 19 19 20 21 22 23 24 24 25 25 24 24 24 23 24 23 23 22 21 21 21 21 22 20 23 27 25 23 25 25 25 24 23 24 25 23 22 22 22 22 21
11 12 13 14 15 17 16 14 15 16 15 15 16 16 17 17 17 16 16 16 16 16 16 16 16 16 16 16 16 16 16 17 16 16 16 16 16 16 17 17 17 18 18 19 20 19 19 19 18 19 19 20 21 21 21 22 22 23 24 24 24 24 24 23 22 21 21 21 21 22 21 24 28 28 26 25 25 26 25 23 23 24 23 22 21 21 21 21
14 15 14 15 14 13 13 11 12 14 15 15 16 15 16 17 17 16 17 16 16 16 16 16 16 16 16 16 16 15 16 16 16 16 16 16 16 16 17 17 17 18 19 19 19 19 18 18 18 17 17 18 19 19 20 20 20 21 23 24 24 24 24 24 22 21 21 21 21 22 23 24 26 29 29 27 25 26 26 24 24 24 23 22 22 21 21 21
13 14 13 14 15 14 13 12 11 13 14 14 14 14 15 15 16 16 17 16 16 16 16 15 15 15 15 15 15 15 15 15 16 15 15 15 16 16 17 17 17 18 18 19 19 18 18 18 18 17 17 17 18 18 19 19 19 20 21 23 24 24 23 23 22 22 23 21 21 23 24 23 25 28 30 28 26 25 26 25 25 25 24 23 22 21 21 21
12 12 10 11 13 14 14 13 12 12 13 13 13 13 14 15 15 15 16 16 16 16 16 15 14 14 14 14 14 14 14 14 15 15 15 15 15 16 17 17 17 17 17 18 18 18 18 18 18 17 17 17 18 18 19 19 19 20 21 22 24 24 23 23 23 23 23 22 22 23 23 23 26 28 27 27 26 25 25 25 24 24 24 23 22 22 22 21
11 11 9 9 11 12 11 11 11 12 13 14 13 13 13 14 15 14 15 16 16 15 15 15 15 14 14 14 15 14 13 14 14 14 15 15 15 15 16 17 17 17 17 17 17 17 17 17 17 16 16 18 18 18 19 19 19 20 22 23 24 24 23 23 24 23 23 23 24 23 23 24 25 23 20 21 23 24 24 24 24 24 24 23 23 23 22 22
10 10 10 11 11 10 10 11 12 13 13 12 13 13 12 13 14 14 14 15 15 15 14 15 14 14 13 14 15 14 14 13 13 14 15 15 14 15 15 16 17 16 16 16 17 17 18 17 17 16 17 18 19 18 19 19 18 19 21 21 22 23 23 22 22 21 21 23 23 22 23 24 22 18 17 18 21 24 25 25 25 25 24 23 23 23 22 22
7 7 8 11 12 10 10 11 11 12 13 12 12 13 12 13 13 13 14 14 14 14 14 14 14 14 14 15 15 15 14 13 13 14 14 14 14 15 16 16 16 16 16 16 16 17 17 17 16 16 17 18 18 17 18 18 18 20 20 18 19 21 20 19 19 18 18 20 20 21 22 22 19 17 17 17 19 23 25 25 25 24 23 24 24 23 22 22
6 6 7 9 11 10 9 10 10 12 12 11 11 12 12 13 11 12 14 14 13 14 13 13 14 15 15 15 15 15 14 13 14 14 14 14 14 14 15 15 16 16 15 15 15 16 16 16 16 16 16 17 17 16 16 18 19 20 19 17 18 19 18 17 17 17 17 17 18 20 20 18 17 17 17 17 17 19 21 23 24 24 23 23 24 23 23 22
Height
785 783 782 780 779 777 776 775 773 771 771 769 768 767 765 764 763 762 761 760 759 758 757 756 755 755 755 756 756 755 755 754 753 753 751 740 736 740 741 742 743 745 747 748 750 751 752 753 755 755 757 758 759 760 758 758 759 765 775 784 787 787 785 777 773 773 771 766 768 772 770 769 771 772 768 768 770 771 772 771 770 769 768 768 766 765 766 768
784 783 781 780 778 777 775 774 773 771 770 768 767 766 764 764 762 761 760 759 759 757 757 755 754 754 754 755 755 755 754 753 752 751 743 733 733 737 738 740 742 744 745 746 747 749 752 753 754 755 757 760 760 759 760 760 761 767 777 783 782 778 773 766 764 765 765 764 765 769 770 768 768 769 768 771 775 773 774 772 771 771 768 768 766 766 767 768
784 782 781 779 777 776 775 773 772 771 769 768 767 765 764 763 761 760 759 759 757 757 756 754 754 753 753 754 754 755 753 752 752 744 734 731 733 733 734 737 739 741 743 745 746 748 750 751 752 755 759 762 761 761 763 764 764 766 773 781 775 768 765 762 761 761 761 761 763 768 769 768 767 767 767 771 776 775 774 772 771 771 769 768 767 767 768 769
783 782 780 778 777 775 774 772 771 770 768 767 766 764 763 761 761 759 758 758 756 756 755 754 753 752 753 753 754 754 752 754 749 736 731 732 732 731 732 733 735 739 741 744 746 747 749 750 752 754 759 765 765 763 765 765 765 766 770 773 767 764 765 760 758 758 759 760 762 766 769 769 766 766 767 770 775 776 772 767 765 766 766 767 768 767 768 769
783 781 780 778 776 774 773 771 770 769 767 766 765 764 762 761 759 758 757 756 755 755 753 753 752 752 753 752 754 753 754 760 744 729 732 731 730 731 731 731 733 737 740 743 745 747 749 750 753 756 761 767 768 766 765 762 762 766 766 764 762 764 765 757 755 757 759 761 762 766 767 766 764 765 767 768 770 769 764 761 760 760 762 764 766 767 769 770
783 781 779 777 775 774 772 770 768 767 766 765 764 762 761 760 758 757 756 755 754 754 752 752 751 752 753 752 755 752 757 760 738 728 732 730 730 730 730 731 732 735 739 742 744 746 749 751 755 760 764 766 767 765 762 759 760 766 765 760 759 761 761 755 754 756 757 760 762 763 761 762 765 766 766 765 763 760 759 758 758 759 760 762 764 766 768 769
782 780 778 777 775 773 771 769 768 766 764 763 762 761 760 758 757 756 754 753 753 752 751 751 750 752 752 753 754 753 757 750 730 728 731 729 730 728 729 730 731 736 738 740 743 746 749 752 756 760 764 766 765 762 760 759 760 766 765 759 757 758 758 754 754 755 756 758 759 759 760 762 765 765 766 764 758 757 758 758 758 759 761 762 764 766 767 769
781 780 778 776 774 772 771 769 766 765 763 761 760 759 758 756 755 754 753 752 751 751 750 749 750 751 752 753 753 756 756 741 727 729 729 728 729 727 728 730 732 735 737 739 741 744 748 752 756 758 762 763 762 761 759 761 763 765 764 759 757 756 754 753 754 755 755 757 758 759 762 763 763 763 765 762 756 757 758 758 759 760 762 764 764 766 767 768
781 779 777 775 773 771 770 767 766 764 761 760 758 757 755 754 753 753 752 751 749 750 749 748 750 750 752 752 753 757 747 730 727 730 729 728 727 727 728 729 733 735 737 740 741 744 748 751 754 753 757 759 758 759 758 763 765 760 759 757 756 755 752 752 754 754 755 757 758 761 764 763 760 762 762 757 756 758 758 759 760 761 763 764 765 766 766 767
780 778 776 774 772 770 768 766 764 762 760 758 756 754 753 752 751 750 750 749 748 748 747 748 748 749 751 750 755 756 736 725 729 729 728 728 728 729 729 729 732 734 737 740 741 743 743 746 748 747 752 756 757 758 758 762 760 754 756 756 755 755 752 752 753 753 755 756 757 760 764 762 759 764 762 755 757 758 758 761 762 762 763 764 764 765 766 767
779 777 776 773 771 770 767 765 763 761 759 756 754 752 750 749 748 748 747 747 746 746 746 746 747 749 750 750 755 750 730 725 729 727 729 729 729 730 730 730 731 733 736 739 741 738 738 741 743 747 753 755 756 759 757 755 754 753 755 756 755 754 752 751 753 754 755 756 756 757 762 762 762 763 758 754 758 758 758 762 763 763 763 763 764 765 766 766
779 777 774 772 770 768 766 764 761 759 757 754 752 749 747 747 746 745 745 745 744 744 744 744 747 748 749 752 749 736 726 728 728 727 729 728 729 730 730 731 730 731 733 737 739 736 738 740 741 748 752 753 756 760 757 751 753 754 755 759 757 753 751 750 752 754 754 755 754 756 765 766 763 759 753 755 759 759 760 762 763 763 763 764 764 765 765 765
778 776 774 772 769 767 765 763 760 758 755 752 750 747 745 744 743 742 741 742 742 742 743 743 746 746 749 749 736 726 727 729 728 728 728 727 729 729 730 731 730 731 731 734 736 736 739 740 741 747 748 751 756 756 752 750 754 756 757 762 761 759 756 750 750 753 754 756 751 756 772 768 757 753 753 757 759 759 762 762 763 764 763 764 764 765 764 764
778 775 773 771 768 766 764 761 759 756 753 750 747 745 743 741 741 740 739 740 740 741 742 743 745 747 749 741 726 725 728 727 728 727 726 727 728 729 730 730 731 732 733 734 736 737 739 740 742 746 747 750 752 750 752 755 757 759 762 765 769 771 762 750 750 754 755 758 750 756 776 767 749 750 754 758 758 757 761 762 764 764 764 764 764 765 764 763
777 775 772 770 767 765 763 760 758 754 751 748 746 744 741 740 739 738 739 739 740 742 742 745 746 747 749 739 725 725 725 725 726 724 725 726 726 728 727 728 731 732 733 736 737 738 739 741 745 750 751 748 749 755 760 761 761 765 769 772 776 776 766 753 749 751 753 757 753 757 774 766 748 749 755 757 758 757 759 762 764 763 763 764 764 764 764 762
776 774 771 769 766 764 762 759 756 753 750 747 745 743 741 741 740 740 740 740 741 743 745 748 747 748 750 738 725 724 724 724 723 722 724 723 724 725 725 728 731 733 735 736 737 738 739 741 746 750 751 751 756 761 766 770 769 770 774 776 775 774 772 761 750 749 749 754 758 758 765 761 750 753 757 758 758 758 760 762 763 763 763 763 764 763 763 762
775 773 770 768 765 763 761 758 756 752 749 747 745 743 742 742 742 742 741 742 744 745 747 748 748 750 744 730 725 726 724 723 722 722 722 721 722 723 725 729 732 733 735 735 737 739 740 744 749 752 753 758 761 762 774 784 778 774 776 777 774 773 774 768 755 750 750 753 758 760 761 756 749 755 760 758 758 759 759 760 761 763 763 763 763 763 762 762
774 772 769 767 764 762 760 757 755 751 749 747 745 744 744 744 744 744 743 744 746 747 749 749 749 753 743 728 728 728 723 723 722 721 721 720 721 722 725 728 731 733 737 739 740 742 746 748 753 757 759 763 763 765 778 782 772 771 774 774 774 772 773 772 762 753 750 753 757 762 764 756 750 756 760 759 759 759 758 759 760 761 762 762 762 762 761 761
773 770 768 766 763 760 758 756 753 751 749 747 746 745 744 745 745 745 745 745 748 748 749 748 748 748 739 730 728 725 722 723 722 720 720 719 720 723 725 727 731 735 742 747 747 747 750 753 759 763 764 764 762 763 766 765 762 765 768 769 771 770 769 766 760 751 749 754 758 761 762 754 750 753 758 760 759 760 759 758 759 760 760 761 761 760 759 760
772 769 767 764 762 759 757 755 753 751 748 747 746 745 746 749 750 749 746 744 745 744 742 741 740 738 733 728 725 724 723 722 722 720 719 719 720 723 727 730 735 739 744 749 751 749 750 761 766 763 760 757 755 756 755 756 760 763 766 768 769 771 768 759 754 749 747 754 757 755 756 753 748 750 756 759 759 760 760 759 758 757 758 758 758 757 757 757
771 768 765 763 760 758 756 754 752 751 749 747 746 746 751 756 757 756 751 743 737 736 736 733 732 732 727 725 724 724 726 725 722 719 719 719 719 726 732 733 741 747 746 747 751 750 752 765 764 753 751 750 751 754 755 758 761 762 766 768 770 773 767 756 752 750 747 754 756 753 756 753 747 749 754 757 758 758 756 756 755 753 754 755 755 755 754 753
770 767 764 762 759 757 755 752 751 751 749 748 747 748 753 755 756 756 754 749 735 729 731 727 727 728 721 723 724 724 730 731 725 718 716 719 721 728 734 736 744 750 748 748 754 758 763 766 755 744 747 749 751 754 757 760 762 764 768 770 772 770 765 756 752 751 750 754 755 754 755 751 746 748 751 753 753 752 750 751 750 750 753 753 752 752 752 752
770 766 763 760 757 756 753 751 751 750 749 749 749 750 753 754 753 751 754 755 740 726 726 726 727 727 722 723 722 723 730 732 728 720 714 718 724 727 732 738 745 749 751 752 756 766 770 759 744 741 746 750 752 755 758 762 764 765 767 771 771 767 767 762 754 753 751 752 753 754 756 751 747 748 748 749 749 747 748 748 748 750 750 749 749 749 750 751
769 765 763 759 756 754 752 751 750 750 750 749 750 751 752 752 750 750 751 752 743 729 723 722 723 723 721 718 717 721 727 726 725 719 712 717 724 726 730 736 744 750 752 751 754 762 759 746 739 742 747 749 753 756 760 764 766 766 764 767 766 762 763 761 757 755 752 753 753 755 761 754 746 748 746 746 749 748 746 747 747 748 746 747 747 747 748 748
767 765 762 758 755 753 751 751 750 751 750 749 750 750 750 749 748 748 748 752 750 734 723 721 722 720 715 714 716 718 722 721 718 713 709 713 719 725 730 732 740 750 752 751 757 760 752 741 739 744 749 751 753 757 759 760 764 765 760 757 757 756 757 757 759 759 761 763 755 757 770 761 747 748 746 746 750 748 746 747 746 745 745 746 746 744 745 745
766 764 760 757 755 752 750 751 751 751 749 749 750 748 749 747 746 746 749 762 760 737 725 726 725 720 713 716 716 715 724 722 708 706 708 709 711 717 730 734 735 744 748 749 756 755 746 737 737 742 747 751 755 756 755 755 764 767 756 748 751 754 756 758 760 763 768 768 759 758 769 767 752 742 740 745 749 747 747 746 743 743 743 744 743 742 742 743
765 762 759 757 755 752 751 753 753 751 751 751 748 748 747 744 745 743 751 774 768 737 729 730 725 721 716 716 714 718 731 722 705 705 705 708 709 710 726 736 736 740 740 748 759 749 736 738 740 742 745 752 757 754 749 751 761 762 749 744 749 752 755 757 759 764 766 763 761 760 762 769 762 743 741 747 746 746 748 746 742 741 740 740 739 739 739 740
765 761 758 757 755 754 754 754 754 752 753 752 747 747 745 742 744 743 760 786 766 732 731 730 721 717 715 714 714 718 722 715 714 713 701 704 710 711 726 732 733 738 733 745 759 742 730 738 741 741 748 753 750 743 741 746 752 750 744 746 749 750 753 756 758 764 767 766 766 763 761 771 766 745 745 751 746 746 744 740 739 736 736 736 736 736 736 737
764 760 758 757 755 755 755 755 754 752 752 750 747 746 743 742 743 747 772 784 754 731 733 728 721 722 720 719 719 720 717 714 719 713 702 706 708 710 724 726 727 737 733 737 745 735 730 733 731 736 745 744 739 736 738 741 743 743 744 748 750 754 757 759 761 760 766 771 767 761 760 769 764 743 744 753 746 741 736 733 734 731 731 733 732 734 734 735
763 760 758 757 756 755 755 754 753 752 750 747 747 744 741 743 748 765 787 777 750 740 736 731 732 732 730 729 728 725 723 720 716 710 709 712 710 710 718 720 724 735 737 735 736 731 729 726 725 731 734 733 733 737 739 738 739 740 743 746 750 754 756 760 764 760 767 773 764 760 759 764 765 746 738 742 734 729 728 728 730 729 729 730 729 731 732 733
763 761 759 757 757 756 755 754 752 751 749 746 745 742 742 751 761 781 786 763 751 751 742 740 741 737 738 741 739 732 727 725 719 717 718 717 718 720 721 725 730 738 744 742 738 732 730 730 728 726 725 728 734 739 740 739 739 740 743 748 755 760 759 762 764 763 774 776 764 765 764 764 768 748 730 729 723 722 724 722 724 726 726 726 726 728 729 730
762 761 759 758 757 756 756 755 752 750 748 746 745 742 749 765 775 781 771 754 759 763 753 751 747 743 745 744 744 739 733 731 725 724 726 723 726 728 730 736 737 746 754 749 742 737 733 731 727 723 722 725 733 743 747 744 742 743 746 754 766 775 776 776 776 776 780 774 764 767 765 763 761 739 722 723 719 717 719 716 717 720 721 722 723 725 727 729
762 761 759 758 757 756 756 754 751 749 747 745 745 746 757 775 782 778 770 764 769 765 755 753 749 748 747 745 748 743 737 738 732 729 727 724 729 733 736 739 736 743 751 748 747 747 741 732 726 728 726 721 726 739 749 749 747 747 749 756 769 782 790 791 790 790 785 771 764 768 767 762 753 730 717 717 712 711 713 713 713 713 716 718 718 722 725 727
761 760 760 759 757 756 755 753 751 749 747 745 747 754 766 780 783 778 776 774 769 760 754 755 754 750 747 749 753 747 744 744 737 735 734 731 740 745 746 745 739 741 745 747 751 753 754 745 729 727 725 719 720 725 732 739 746 750 747 751 761 770 779 785 783 782 779 770 767 768 764 757 745 725 715 714 710 710 711 711 711 712 714 716 717 722 725 726
761 760 760 758 757 757 754 753 751 749 748 747 752 764 775 785 787 783 780 774 767 762 758 756 755 754 753 755 755 749 750 750 742 742 746 749 757 759 756 752 748 748 750 751 752 751 756 748 725 717 716 714 718 717 719 731 746 753 748 751 758 754 758 774 779 778 778 775 771 767 758 747 734 719 714 716 712 711 712 711 712 714 715 718 720 722 724 725
760 759 759 758 757 756 754 753 751 749 749 750 758 774 782 784 785 782 776 771 768 767 764 760 759 762 764 763 762 755 750 750 748 749 752 757 762 762 760 755 751 753 755 756 755 750 751 743 722 716 716 713 716 716 717 726 739 751 752 751 751 743 745 766 781 781 783 781 772 766 755 741 732 720 713 714 712 710 714 712 712 715 716 718 720 721 723 724
759 758 759 759 757 755 753 752 750 749 750 753 765 779 783 780 777 774 772 769 769 767 767 769 768 770 773 772 770 765 757 753 754 757 760 762 764 763 764 759 752 753 755 757 756 748 748 744 724 716 722 718 714 715 718 719 725 743 751 744 742 745 746 757 772 778 784 783 771 765 758 747 744 733 715 713 712 710 715 715 714 718 718 718 720 720 722 722
759 759 759 759 758 756 753 751 750 750 752 760 773 781 781 777 772 771 771 768 768 766 770 777 774 771 775 777 775 770 764 762 763 763 765 769 769 764 766 764 756 753 751 751 752 746 748 751 731 717 723 722 714 719 729 725 719 728 734 731 738 752 756 762 771 774 780 784 773 764 762 754 748 735 715 712 711 707 713 718 717 718 717 718 719 720 721 721
759 759 760 760 758 755 753 751 750 752 755 768 781 782 778 775 770 769 770 768 768 769 774 780 777 773 775 777 777 772 769 770 769 766 769 777 774 763 762 766 760 755 750 747 752 750 748 754 742 722 719 722 720 727 739 737 727 725 729 731 735 744 752 758 763 764 769 780 777 766 758 745 733 724 712 707 707 706 711 716 715 716 715 715 716 718 720 721
761 761 762 760 757 756 755 751 752 757 764 776 783 779 776 775 770 769 769 767 769 771 776 779 778 779 778 776 777 775 773 773 771 769 773 778 776 764 761 764 763 759 751 746 752 752 748 752 748 731 722 726 728 728 733 734 731 732 737 743 741 742 749 752 756 759 759 767 775 772 761 735 716 713 707 699 700 703 707 710 711 713 713 712 714 714 716 718
763 764 764 760 757 757 754 755 764 771 774 779 781 777 775 774 772 772 769 767 769 770 773 777 779 781 782 780 779 777 776 775 773 774 777 779 779 774 766 763 765 761 754 752 754 753 754 757 757 747 735 731 724 718 720 722 723 726 731 738 738 741 755 763 763 762 756 758 766 770 763 732 706 707 706 697 696 698 702 706 707 710 710 710 712 711 713 715
765 767 766 761 758 756 756 765 777 781 778 778 779 778 775 773 774 776 772 770 772 772 772 776 779 781 782 781 780 778 779 779 778 779 782 782 782 780 771 765 765 761 757 760 759 753 755 761 763 754 740 729 719 712 713 714 716 720 723 729 733 739 753 763 764 758 756 761 760 763 762 731 703 707 708 701 700 699 701 705 704 706 708 708 710 711 711 713
769 769 764 761 760 756 760 772 781 780 778 778 779 777 775 776 777 777 776 775 776 776 777 779 780 781 781 781 781 780 781 782 782 781 784 785 781 776 772 768 766 761 758 762 761 752 753 761 764 753 735 725 718 712 711 711 715 724 725 726 732 737 739 744 749 750 752 758 755 759 762 730 700 704 706 700 702 701 702 703 701 704 707 708 709 710 711 712
777 775 769 764 759 756 765 777 780 780 781 780 778 777 776 777 779 779 779 779 778 779 781 782 782 782 781 780 781 782 781 784 785 782 783 787 783 775 771 769 768 766 763 763 761 756 757 764 766 759 748 738 730 727 725 721 722 727 726 725 728 732 734 738 744 747 750 754 749 752 755 727 701 702 703 699 700 701 703 704 701 703 705 707 708 708 709 711
777 776 774 769 762 762 773 783 782 782 785 783 781 781 780 779 779 780 780 781 780 780 782 783 783 783 783 782 782 783 781 782 786 785 784 786 783 776 772 771 769 767 763 759 756 757 763 768 769 772 772 764 756 752 748 742 738 732 724 724 726 729 733 736 742 747 751 753 749 745 741 721 700 698 699 700 701 699 701 704 703 703 704 706 708 708 709 711
776 774 776 774 770 773 782 788 787 785 785 785 785 786 785 783 782 780 779 781 782 781 782 784 783 783 785 785 786 787 785 783 784 786 786 786 782 777 773 770 769 766 762 758 755 758 766 768 771 779 781 776 769 762 754 753 754 743 729 725 726 728 730 731 740 745 745 749 747 735 727 720 709 700 698 700 702 700 700 702 702 702 703 705 707 708 710 711
778 780 783 780 778 781 784 788 791 789 787 787 789 790 789 788 785 782 780 782 783 782 784 787 787 787 790 790 790 792 792 787 786 787 788 786 781 776 770 767 767 766 763 761 758 761 767 768 770 775 774 771 768 761 753 755 756 749 738 729 725 728 730 732 738 736 733 744 744 726 722 726 715 702 697 697 700 701 700 700 700 700 702 704 706 708 709 711
781 786 791 788 785 787 787 788 792 792 789 788 791 794 793 790 789 788 785 783 784 784 785 788 791 792 794 793 793 796 796 793 792 790 788 785 783 779 773 768 766 766 765 764 761 764 770 771 769 770 768 763 760 756 752 751 750 744 737 730 723 724 730 731 730 727 726 735 734 724 726 725 710 703 704 700 699 700 697 696 698 699 701 704 705 707 708 710
785 787 792 791 790 793 794 794 794 792 789 789 791 795 795 792 791 792 789 787 788 788 788 791 793 794 793 792 791 796 799 798 797 793 788 786 786 784 780 773 768 766 767 768 766 765 770 773 770 772 769 758 753 753 749 748 749 741 731 727 722 721 725 724 724 727 727 724 723 726 727 720 714 719 721 713 706 702 698 697 697 698 700 702 704 706 706 708
787 788 790 790 791 795 796 796 794 790 790 793 794 796 798 796 794 793 791 791 792 791 791 792 793 794 794 791 790 794 796 797 798 795 789 789 788 785 782 777 772 770 770 771 769 766 769 773 771 772 769 757 752 752 747 747 751 743 734 735 729 721 725 728 730 737 736 728 729 732 726 718 720 727 726 717 708 700 698 698 697 697 699 701 702 704 705 707
790 791 791 789 792 797 797 797 798 793 793 798 798 797 799 798 798 797 794 793 794 794 793 793 793 793 793 790 789 791 792 793 795 791 787 788 787 782 780 777 773 774 774 774 772 769 770 774 773 773 773 763 757 756 753 749 746 740 743 749 740 731 737 745 747 749 748 742 738 733 728 728 731 729 725 718 711 704 699 697 696 696 697 698 700 702 703 704
791 792 793 790 793 801 801 800 800 796 796 801 802 799 798 798 800 799 795 794 795 794 794 794 793 791 791 791 790 790 790 790 788 785 782 783 781 779 778 775 772 775 776 775 775 772 772 775 774 777 777 768 762 765 761 751 744 745 753 756 748 741 746 752 753 753 751 750 746 739 738 742 740 734 730 724 718 714 707 700 698 698 697 696 696 698 700 700
Wind_Speed
20 20 20 20 20 20 20 20 19 18 18 17 17 17 17 17 18 18 18 17 15 12 9 8 7 8 9 9 11 11 11 11 13 10 10 22 31 29 26 23 17 13 14 19 17 10 6 4 1 1 3 2 2 1 1 3 2 2 2 2 3 3 4 5 5 5 3 2 3 5 5 5 3 2 1 2 4 2 1 1 2 3 3 2 4 2 14 19
20 20 21 21 21 21 20 20 20 19 18 18 17 16 16 16 17 17 17 18 17 14 11 9 8 8 8 7 9 10 10 12 11 11 20 25 26 29 30 28 24 17 12 15 18 14 7 5 2 4 3 1 1 1 1 1 1 2 3 1 4 4 4 5 5 5 3 2 3 5 4 3 3 5 3 2 1 1 2 2 3 3 3 2 1 7 16 17
20 20 21 21 21 21 21 21 21 21 20 19 17 16 15 15 15 16 17 17 17 16 12 10 9 8 7 5 6 8 8 7 6 11 16 11 8 13 19 24 27 24 18 15 14 15 12 5 5 4 2 0 2 1 2 2 1 1 3 2 5 5 4 4 5 6 5 4 5 4 4 2 2 5 3 3 4 3 4 4 1 2 4 2 3 8 13 14
21 21 21 21 21 21 22 22 21 21 21 20 19 17 16 15 15 15 16 16 17 17 13 11 10 9 6 4 4 5 5 4 4 8 5 2 4 9 6 13 23 25 22 15 10 10 11 5 5 3 3 2 3 2 0 3 2 0 3 4 5 3 2 5 6 6 5 4 5 4 5 2 3 4 4 5 5 3 5 6 6 7 7 7 5 6 10 11
22 22 22 21 21 21 22 22 22 22 21 21 20 18 17 15 15 14 15 15 16 16 14 11 10 8 3 2 2 3 3 4 4 5 3 5 10 13 11 5 19 24 20 15 9 8 8 5 5 3 3 1 2 0 2 5 3 1 3 5 5 3 2 6 5 4 4 4 5 6 5 4 3 3 5 8 5 5 5 6 9 8 8 10 8 7 7 7
23 23 23 23 22 22 23 23 23 23 22 21 20 19 18 16 15 14 14 15 15 15 13 11 10 6 3 3 2 3 1 0 8 10 10 14 17 16 13 3 18 22 19 15 11 10 6 5 4 2 2 1 4 3 4 3 3 2 4 4 4 4 4 4 2 4 5 6 5 6 4 4 4 2 4 8 6 5 4 5 7 7 8 10 8 8 7 7
23 24 24 24 24 24 24 24 24 24 23 22 21 20 19 17 16 15 15 14 14 14 12 11 10 4 5 5 3 1 2 5 16 19 19 20 17 14 8 6 18 22 21 16 11 8 5 5 4 4 3 1 3 5 4 0 3 3 4 4 4 4 6 4 2 4 6 6 6 5 3 5 6 3 2 6 8 4 3 2 4 5 6 9 8 7 8 8
24 24 25 25 26 26 26 25 25 25 25 24 22 21 19 18 16 15 15 14 14 12 10 10 9 4 8 6 3 2 0 12 23 20 18 16 11 6 4 12 20 23 21 18 13 8 7 7 5 4 3 4 3 4 3 2 1 4 5 4 2 3 6 5 3 4 5 5 3 5 4 3 6 4 3 7 9 4 1 3 6 6 6 7 7 8 7 6
25 25 25 25 26 27 27 27 27 27 27 25 24 22 20 19 17 16 15 15 13 11 10 9 8 7 10 5 2 1 6 16 19 11 8 8 5 4 8 13 21 23 17 16 14 10 7 6 6 6 4 5 4 3 3 3 2 5 6 4 2 3 5 4 4 5 5 4 4 6 1 3 3 3 2 7 5 2 2 5 6 7 7 6 7 7 7 7
25 26 26 26 26 27 28 29 29 29 28 27 25 23 20 18 17 17 15 15 12 10 9 9 7 11 11 4 4 2 9 8 6 3 4 6 2 8 9 11 21 23 15 13 13 11 8 7 7 5 2 2 3 3 3 4 3 5 5 4 5 5 4 3 4 5 4 4 6 7 2 4 1 2 4 5 3 4 6 5 5 7 7 7 6 6 6 6
26 26 26 27 27 27 28 28 30 30 29 28 25 22 20 18 17 17 16 14 12 9 8 8 9 13 10 3 4 5 7 4 3 3 2 4 4 4 7 12 20 22 17 11 13 19 14 8 8 4 1 2 2 1 2 4 2 2 3 3 5 5 5 4 4 4 4 3 6 7 2 3 1 1 5 4 4 5 8 6 5 6 6 7 6 6 4 5
27 27 27 28 28 28 28 28 30 31 30 28 24 21 19 17 16 17 16 14 11 9 8 8 11 14 7 2 7 14 7 1 2 2 1 2 2 3 5 13 18 21 19 12 14 23 15 8 11 5 3 3 2 1 2 3 1 0 1 2 6 6 5 4 3 5 5 3 6 7 1 4 2 6 5 3 6 5 7 7 6 6 6 6 6 5 4 5
28 28 28 29 29 29 29 29 29 30 30 27 23 19 17 17 16 16 15 11 9 8 8 8 14 13 5 1 10 18 14 7 6 7 7 7 8 6 6 13 18 19 20 17 15 19 16 11 11 5 3 3 1 2 1 2 2 0 1 1 4 6 5 4 2 5 5 3 7 7 1 6 7 10 4 3 7 8 6 6 6 5 5 5 5 4 5 6
29 29 29 30 30 30 30 30 30 30 29 25 20 18 17 16 15 13 10 7 7 7 7 10 16 10 3 5 10 12 16 16 17 19 17 16 12 5 7 13 19 20 19 16 9 10 16 12 6 1 1 1 2 1 3 5 3 1 2 2 2 3 4 7 1 6 4 2 5 7 1 7 9 10 4 5 7 9 8 6 6 5 5 5 5 5 6 6
29 30 30 31 30 30 31 31 30 30 27 21 17 16 14 12 9 6 1 3 4 5 8 14 14 6 2 8 11 9 10 12 17 21 20 19 13 7 9 15 20 20 16 13 3 2 12 11 3 1 2 1 2 2 3 4 3 2 2 3 3 0 4 8 3 7 6 2 3 6 2 7 9 8 4 7 6 8 8 7 6 6 6 6 5 5 5 6
30 31 31 32 31 30 31 31 31 30 24 18 15 12 10 9 6 4 5 6 6 8 10 10 8 3 0 5 7 6 5 5 10 12 11 15 15 10 10 14 14 14 10 9 5 2 10 10 2 2 1 1 3 3 2 4 4 3 1 3 3 1 3 6 3 4 6 4 2 3 2 5 5 5 1 6 7 7 7 6 7 7 7 6 5 5 5 5
31 32 32 32 32 31 31 30 31 28 21 15 10 9 11 10 8 7 9 12 13 13 8 4 4 1 3 6 5 4 5 4 7 9 8 10 13 11 10 9 6 7 6 4 6 3 4 4 0 0 1 2 3 3 1 3 4 3 1 2 3 3 2 3 4 2 4 6 3 5 4 6 5 3 2 5 7 7 7 7 8 7 6 6 5 5 5 5
32 33 33 33 32 31 30 30 31 25 17 11 7 11 12 11 10 10 13 15 12 8 4 2 2 1 4 5 3 4 7 7 11 14 11 7 10 14 12 7 5 8 5 1 2 2 1 1 2 0 3 2 2 4 2 4 4 2 2 1 3 2 2 4 4 2 3 4 4 5 5 11 8 1 4 5 5 7 7 7 6 6 6 6 5 5 6 5
33 33 34 33 32 31 30 30 28 20 15 8 6 8 9 9 9 8 11 11 5 0 1 1 3 2 4 4 5 8 11 11 13 14 6 1 8 13 10 7 7 8 5 1 0 2 1 2 2 1 2 2 4 6 7 8 6 5 4 4 3 3 3 5 5 5 4 3 3 7 7 11 9 4 5 5 5 6 6 5 5 5 6 6 5 6 6 6
33 33 34 34 33 31 29 30 24 15 14 8 3 3 5 5 4 2 1 1 3 5 6 6 6 5 8 7 4 6 10 9 7 5 1 4 12 12 6 5 5 4 4 4 2 2 3 2 3 5 7 8 8 9 9 5 5 4 3 3 3 3 4 5 4 5 3 4 4 7 8 10 9 5 5 5 5 5 6 6 6 6 6 6 6 7 7 7
33 34 34 33 33 30 29 28 19 12 12 8 3 3 3 2 2 2 5 5 7 8 11 13 12 12 13 9 2 3 5 6 5 5 6 5 14 11 2 3 5 2 2 4 3 1 3 4 8 10 11 8 6 6 5 3 4 2 2 2 3 2 5 6 4 4 2 3 4 4 6 10 10 4 4 6 7 8 10 9 9 9 7 6 6 8 8 7
33 35 33 34 33 29 29 24 13 11 9 6 7 5 4 2 2 4 2 5 9 9 12 15 11 13 15 12 10 4 0 4 6 8 6 9 9 6 3 4 5 4 2 5 3 1 1 5 12 13 6 2 1 4 5 4 4 2 2 1 3 3 4 6 4 3 1 3 3 3 5 8 8 4 6 9 10 9 9 10 10 8 7 7 8 8 8 7
33 35 34 34 32 28 27 18 8 11 9 5 8 8 2 8 7 2 2 3 8 5 8 9 6 8 9 8 10 8 5 5 5 6 7 12 5 5 6 5 5 4 3 5 5 3 2 7 13 11 5 5 4 3 6 4 3 3 3 2 3 3 1 3 4 4 0 3 1 2 3 6 6 2 5 9 9 6 5 9 8 6 7 9 8 7 6 8
33 35 34 33 30 27 23 9 6 14 10 2 6 7 8 15 11 2 4 2 6 4 4 5 4 5 7 5 8 11 5 5 5 4 9 13 5 3 6 6 6 4 4 7 7 6 8 8 5 4 6 7 4 2 5 5 3 3 4 5 4 4 4 5 4 4 3 2 2 4 2 6 4 3 6 4 5 6 5 7 7 7 8 7 6 6 7 8
33 35 33 31 28 24 14 4 7 16 9 2 3 10 17 20 14 1 3 2 3 6 3 1 1 3 4 1 7 9 3 4 7 5 7 12 8 4 3 3 5 6 7 6 6 6 10 6 2 3 4 5 4 3 4 6 3 3 4 8 9 7 6 5 1 5 4 4 2 2 1 5 4 4 7 2 4 9 6 6 9 9 8 6 7 8 7 7
33 33 32 29 24 19 9 3 11 17 6 1 9 19 20 20 14 2 4 4 3 5 3 1 1 2 3 1 5 4 2 3 8 9 9 11 11 6 3 2 1 5 7 6 4 4 6 5 5 4 5 5 4 2 5 7 5 2 5 8 9 7 6 5 2 3 1 2 2 2 3 5 5 4 7 3 6 9 6 7 10 8 7 8 8 8 7 7
32 32 30 24 18 16 8 2 11 11 3 6 16 21 20 20 10 3 3 5 2 4 1 1 1 1 4 2 5 3 3 5 5 6 9 11 8 3 4 5 1 3 4 4 1 4 4 4 3 4 5 4 4 3 6 8 7 3 5 6 7 6 6 5 4 4 3 3 3 3 4 2 5 5 6 3 6 7 6 9 10 9 9 9 9 9 9 8
31 30 26 18 13 11 7 4 9 6 4 14 19 20 21 17 5 4 4 4 2 2 1 2 4 3 7 3 4 3 3 3 2 2 6 12 8 2 4 8 6 6 5 7 5 5 4 4 4 6 4 3 5 4 7 10 5 5 4 5 5 4 4 4 5 4 2 1 4 5 2 1 5 6 4 1 4 6 9 11 12 11 11 10 10 10 10 9
30 27 21 14 9 8 8 7 6 7 14 19 19 21 20 11 2 4 4 1 2 3 1 2 6 6 9 5 1 3 4 2 0 3 0 7 7 2 3 6 7 7 5 7 9 6 1 4 6 7 5 5 5 3 9 11 5 3 4 6 4 4 4 4 4 4 1 1 4 5 3 2 5 6 3 2 2 7 10 10 11 12 11 10 10 9 9 7
29 24 16 12 8 9 11 8 9 15 19 20 20 20 12 3 4 4 2 2 1 4 2 2 5 7 9 7 3 5 5 3 3 3 2 3 2 2 2 2 6 5 3 4 8 6 2 1 3 5 4 4 3 2 4 7 6 4 5 6 5 4 4 3 2 3 2 2 6 6 4 3 3 6 3 3 4 7 7 6 7 8 9 9 9 8 8 7
26 19 13 12 10 11 10 8 16 20 19 21 21 14 4 3 4 5 2 4 1 4 5 5 6 8 9 6 4 6 4 4 6 4 1 1 2 3 2 2 3 3 1 4 6 5 4 2 1 2 2 4 5 4 2 2 4 5 4 5 3 3 4 3 4 3 1 4 6 5 2 4 2 6 4 5 6 5 6 7 8 10 11 11 9 8 8 7
23 15 9 12 13 14 12 12 19 20 18 21 16 5 4 3 2 2 3 4 2 4 5 5 7 8 8 5 4 7 5 5 6 4 1 1 3 2 2 1 2 1 2 6 4 2 4 5 4 2 2 6 6 4 4 4 4 5 5 5 3 2 3 2 3 2 2 5 4 3 1 2 5 8 8 8 9 8 8 8 9 11 12 11 9 8 7 7
19 11 7 12 15 17 18 19 20 18 20 19 8 4 6 4 1 2 3 3 1 3 3 4 7 8 6 4 6 8 4 4 8 6 3 1 4 3 6 7 3 2 1 4 2 1 4 5 2 3 1 5 7 5 3 0 1 4 4 4 3 2 2 1 3 2 3 4 3 3 2 1 4 6 7 9 10 9 8 8 9 10 12 12 10 8 7 7
16 8 6 11 15 19 22 21 18 16 19 14 5 5 5 3 2 2 3 3 3 4 4 3 7 8 5 4 4 7 4 4 8 8 6 5 4 3 5 9 9 4 1 1 1 3 3 5 4 6 2 6 9 7 6 5 3 3 3 5 4 3 3 2 3 2 3 4 3 3 2 2 2 3 5 7 8 7 5 6 6 6 6 6 5 6 6 7
14 6 6 12 16 20 22 19 16 15 13 7 6 6 3 2 3 1 2 4 3 4 5 5 5 4 5 4 4 7 3 2 6 7 6 6 5 4 3 5 8 7 3 0 1 1 2 6 7 3 1 8 10 5 6 7 3 0 2 5 2 3 4 1 2 4 2 2 3 2 2 4 4 5 5 3 5 5 1 4 5 4 4 5 5 6 7 7
12 3 4 12 19 21 21 17 14 13 7 5 7 4 2 2 1 1 1 3 2 3 5 5 5 4 4 4 4 8 5 2 5 6 4 5 5 5 5 4 5 7 4 1 2 0 1 5 5 3 2 4 7 5 5 3 2 2 2 3 3 3 6 3 1 0 3 1 3 1 3 5 4 5 6 4 5 5 3 4 5 5 6 6 6 7 7 7
15 5 2 12 22 22 18 14 11 8 5 6 6 2 2 2 2 3 2 3 3 2 3 3 3 2 3 3 3 8 7 4 5 5 3 3 3 6 7 5 3 5 4 2 3 2 2 5 6 2 1 4 0 6 4 2 5 5 3 5 3 3 4 3 0 3 4 0 3 2 3 5 2 2 5 5 3 3 1 2 4 4 6 7 7 7 8 8
13 5 1 11 23 21 13 9 6 4 5 6 4 2 1 0 1 1 3 4 2 2 4 2 1 1 2 2 2 6 6 4 5 4 3 4 2 3 6 4 3 7 8 3 2 2 1 3 7 3 3 1 3 6 4 3 3 5 4 5 4 2 0 1 1 0 1 1 4 4 4 3 3 4 4 2 3 5 4 2 4 5 7 7 7 7 7 7
8 3 1 13 22 16 9 6 4 6 7 5 2 1 0 1 2 2 4 3 1 3 4 2 1 2 2 2 2 4 4 3 4 3 2 3 2 2 7 4 4 10 12 5 1 3 1 1 5 5 1 2 2 3 2 2 1 3 2 3 3 2 3 2 2 2 2 1 2 3 4 3 5 6 5 6 8 7 5 5 6 8 9 8 8 7 7 7
4 3 1 15 22 11 6 9 8 6 5 3 2 1 0 1 3 5 5 4 3 2 3 1 2 2 2 3 2 3 3 2 3 3 2 3 3 3 7 7 7 11 11 5 2 3 2 1 3 6 3 2 2 2 6 7 4 3 3 1 1 2 2 1 1 2 3 2 2 1 3 5 6 4 7 9 8 8 9 8 8 8 9 9 8 8 9 8
4 3 2 17 22 9 4 9 7 4 3 2 1 1 2 2 2 6 7 5 4 2 3 2 2 3 2 3 3 3 3 2 3 3 2 4 3 2 6 8 9 11 8 4 3 3 3 1 1 4 3 2 4 4 6 8 6 5 5 5 5 4 3 0 3 1 2 2 3 2 2 7 6 3 6 7 7 9 10 9 8 9 9 9 8 8 9 9
4 2 4 19 21 7 5 6 2 2 3 1 1 0 2 2 2 5 6 5 4 3 3 3 2 3 2 2 2 3 3 2 3 3 3 3 3 1 6 10 11 10 4 2 4 3 0 1 1 4 4 5 6 5 3 6 3 0 1 3 5 5 5 5 4 3 1 1 1 3 0 7 6 3 5 6 3 4 7 9 8 8 8 8 8 7 8 8
3 1 5 19 18 4 7 5 3 3 2 2 1 0 2 2 2 3 5 4 3 3 3 3 2 2 2 1 2 3 3 3 3 3 3 3 4 5 9 11 11 9 4 3 5 3 0 1 1 4 5 4 6 5 4 3 3 2 1 3 5 4 5 5 4 3 2 2 2 2 1 6 6 3 4 5 2 2 5 8 8 7 6 6 7 7 8 7
1 3 4 17 17 5 6 3 0 2 3 3 3 3 3 3 2 2 3 3 3 2 2 3 2 2 2 1 2 3 3 2 2 3 3 2 4 8 11 11 9 8 5 3 5 3 2 2 1 2 4 5 4 4 6 5 2 1 3 3 5 6 5 3 2 2 1 3 4 4 3 7 6 4 3 1 4 4 4 6 6 6 5 6 7 7 7 7
2 1 3 12 17 10 4 3 4 3 1 3 4 3 3 2 2 2 2 3 3 2 2 2 2 1 2 2 3 4 3 2 2 2 1 1 3 5 8 11 9 6 6 10 9 3 1 1 3 4 2 0 1 2 2 4 4 3 3 3 5 6 8 5 1 2 3 4 3 4 4 7 8 7 6 2 2 4 4 4 4 5 5 6 6 6 6 6
2 2 2 6 10 8 2 1 3 3 2 2 3 3 3 2 2 2 3 3 3 3 3 2 3 3 3 4 4 5 5 3 2 2 1 3 2 2 7 10 6 6 11 14 11 3 3 1 3 4 3 5 5 7 6 4 5 6 6 4 5 6 8 6 4 3 4 2 2 5 6 6 10 10 7 5 4 4 5 4 5 5 5 5 5 5 5 5
2 2 1 2 3 4 3 3 4 3 1 3 3 2 3 2 2 3 3 2 3 4 3 2 4 4 3 4 4 4 6 4 3 4 3 4 3 4 9 7 2 7 12 10 7 4 3 1 2 1 3 7 9 12 12 8 7 10 9 7 7 7 7 6 5 6 5 4 5 8 5 4 10 10 9 8 7 6 7 7 7 7 6 5 5 5 6 6
2 2 1 1 1 1 2 3 4 3 3 3 3 2 3 4 3 2 2 2 3 4 3 2 6 5 2 1 3 3 6 4 4 4 3 3 5 6 8 5 1 5 9 6 4 3 3 1 3 5 8 10 9 10 10 7 8 11 11 11 9 7 9 10 11 9 7 6 9 4 5 6 9 7 8 9 7 7 7 7 5 4 5 6 6 7 7 7
2 2 1 2 2 3 2 2 2 3 5 4 3 3 3 3 3 1 2 2 4 4 3 3 4 5 3 1 3 3 3 2 3 4 2 3 6 4 4 4 2 2 5 4 3 2 2 1 3 4 10 13 8 5 6 7 9 9 8 8 6 7 11 12 9 4 4 7 5 2 4 9 5 6 11 12 8 5 2 2 4 5 6 7 8 8 8 8
2 2 0 2 3 1 0 2 2 3 4 4 3 3 2 2 2 2 2 3 1 3 3 4 1 2 2 3 5 3 0 1 3 5 3 4 5 3 2 2 2 2 4 3 3 2 2 2 3 3 7 10 7 8 12 13 10 6 3 5 4 2 2 2 1 4 3 5 5 3 4 7 4 9 14 14 10 5 3 5 6 6 7 8 8 8 9 9
2 2 2 4 3 3 2 2 3 4 3 3 2 1 1 1 1 1 2 2 2 1 1 1 3 1 2 5 6 4 4 3 5 9 7 5 5 4 3 3 3 4 4 2 2 2 3 2 3 4 5 6 6 12 19 18 10 3 7 12 10 6 6 5 5 5 3 4 4 3 2 5 8 12 15 14 11 7 6 7 7 6 7 9 10 9 10 10
3 2 2 4 3 3 2 2 3 3 1 1 1 1 1 2 3 1 2 1 2 2 1 3 3 2 4 5 5 6 7 7 9 10 8 7 7 6 6 7 7 5 2 1 2 1 1 1 2 3 3 5 6 13 17 13 6 3 6 11 9 5 9 6 7 9 6 2 1 2 2 6 9 12 14 15 14 12 9 6 5 6 7 9 11 10 10 11
Wind_Direction
4 3 1 0 359 358 357 355 354 353 353 353 352 352 349 348 343 340 340 339 334 323 308 290 271 268 269 278 284 284 287 280 280 270 245 262 263 252 249 247 245 250 238 229 224 214 232 249 289 80 135 144 173 196 230 180 130 105 141 208 234 221 209 203 202 194 186 235 195 183 188 145 133 223 214 52 59 81 63 343 306 330 327 249 266 227 158 163
4 3 2 0 359 357 356 355 353 351 350 349 350 348 346 346 342 339 335 335 336 328 314 296 278 265 262 272 280 290 297 288 287 266 261 278 280 263 256 251 243 240 223 210 213 206 217 248 184 114 114 145 246 249 357 355 112 151 152 212 235 212 214 206 190 189 200 218 175 173 187 154 157 178 157 121 179 149 144 278 334 338 314 327 184 147 152 159
4 4 2 1 359 357 356 354 352 351 349 347 346 345 344 341 340 338 333 331 332 331 319 297 282 269 262 266 279 296 297 301 300 269 274 300 307 276 260 248 240 235 227 216 216 211 212 206 138 112 71 14 290 334 25 339 275 196 153 237 249 216 240 240 199 204 208 171 134 160 168 158 195 167 153 153 178 197 196 223 246 242 246 211 164 146 150 156
4 3 2 1 360 358 356 355 353 350 348 346 344 342 340 337 337 334 332 328 327 331 320 297 283 271 263 263 276 290 303 332 281 257 289 13 5 354 327 241 230 227 226 224 226 215 204 167 109 88 70 39 319 354 122 241 235 171 158 222 247 192 253 256 219 214 201 155 136 142 134 172 220 168 176 151 143 244 238 219 199 202 202 181 183 162 156 157
3 2 2 1 1 359 357 356 353 351 348 346 344 341 337 333 333 330 330 326 323 328 319 298 281 270 256 241 244 273 336 17 283 273 336 312 312 330 338 253 212 216 214 209 198 166 163 129 86 62 70 128 265 350 229 217 168 165 213 231 236 162 238 261 225 195 152 123 123 131 143 180 175 156 182 159 158 230 232 222 205 194 182 173 176 168 160 162
3 2 1 0 0 359 358 356 353 352 348 346 344 341 337 331 328 326 325 323 321 323 317 298 281 266 204 191 192 236 214 303 285 293 291 298 307 307 317 244 195 201 195 185 168 149 140 96 80 83 84 207 217 214 249 226 135 223 259 265 247 188 221 256 201 178 142 124 145 158 178 150 139 193 188 177 199 218 237 243 205 189 176 164 158 159 164 174
3 2 0 359 359 357 357 356 353 351 348 346 344 340 336 330 325 321 319 319 318 318 313 293 281 251 169 153 155 235 102 244 273 286 288 295 300 293 295 190 182 184 181 171 156 155 149 123 136 156 147 261 233 222 243 204 128 204 262 285 265 204 217 235 168 182 152 152 181 156 138 146 173 206 146 204 230 234 286 270 164 153 152 149 149 164 175 179
2 0 359 358 356 356 355 354 353 351 348 346 343 340 333 327 322 316 313 313 314 313 305 287 277 210 157 153 167 354 47 251 272 290 300 297 290 276 185 162 171 176 176 175 169 161 151 152 178 163 176 235 205 211 212 114 121 199 230 259 260 213 235 236 165 173 165 161 163 129 130 188 196 169 140 226 247 274 326 107 123 129 134 148 165 175 179 179
1 359 357 356 354 354 353 352 351 349 347 345 341 337 330 324 318 313 308 306 308 304 293 282 266 182 161 161 122 0 261 259 275 295 331 316 272 175 161 162 170 173 170 181 175 151 152 168 196 186 190 214 183 211 189 140 250 214 208 234 235 251 265 233 172 180 180 158 143 140 146 285 210 159 219 240 236 232 119 118 130 137 147 164 178 183 185 185
359 357 355 354 353 352 351 351 350 348 347 343 339 334 327 321 314 309 304 301 300 291 281 270 242 177 168 169 116 226 262 269 279 263 14 6 127 149 165 170 172 171 163 176 172 161 180 186 191 178 143 183 176 199 157 150 218 200 195 240 239 261 289 211 184 200 181 163 170 155 174 277 257 147 254 251 194 142 117 120 146 146 164 179 185 196 195 195
358 356 354 352 352 350 350 350 349 348 345 341 336 330 324 318 311 305 301 296 289 275 263 257 218 176 172 155 145 220 264 280 248 229 41 54 89 140 192 185 176 173 163 165 186 191 194 177 153 116 107 194 161 189 206 187 197 171 181 280 278 305 304 199 163 198 170 173 187 147 148 280 13 196 238 219 166 146 133 138 162 164 179 189 196 207 203 214
358 355 353 351 350 350 350 349 349 347 344 340 333 327 321 316 310 303 299 291 277 254 246 245 195 171 161 110 213 230 245 310 214 213 138 116 23 336 239 205 191 184 174 168 205 207 197 163 146 139 199 158 113 221 241 207 138 71 135 306 296 347 331 235 153 179 173 180 179 134 29 297 222 227 253 178 150 129 134 150 169 181 192 200 209 216 216 227
357 355 353 351 349 349 349 349 349 346 343 339 332 326 320 315 311 305 298 280 254 234 234 215 178 165 140 164 237 240 247 264 273 272 258 256 288 301 255 221 205 199 192 184 202 212 205 184 161 165 191 137 183 229 76 39 64 292 66 58 306 358 336 279 88 149 164 179 164 124 338 279 242 240 260 151 148 124 136 166 179 192 204 214 220 226 239 237
356 355 353 350 349 348 348 348 349 346 343 339 332 326 322 320 316 307 295 254 222 220 213 178 168 153 121 249 265 273 272 270 267 264 258 262 271 262 233 217 203 201 200 192 198 224 212 194 150 142 256 172 237 281 22 9 29 334 345 43 2 7 283 293 9 141 140 214 174 117 155 265 267 263 230 169 156 143 159 185 190 202 212 223 228 229 248 247
356 354 352 350 348 348 348 347 348 346 343 341 336 332 334 336 331 326 309 183 193 188 166 155 159 139 29 275 281 295 284 267 259 260 261 258 243 217 216 202 197 200 202 201 209 280 197 177 134 195 265 312 61 9 335 351 9 27 345 308 345 135 268 307 283 169 149 221 199 125 173 265 278 280 217 165 162 157 169 190 196 209 217 224 235 231 246 260
355 354 352 349 348 348 347 346 347 345 344 347 343 350 9 15 24 62 101 115 109 122 133 144 155 123 29 277 295 294 279 266 266 271 268 250 230 219 200 180 188 196 197 210 207 123 157 152 134 181 188 16 86 81 14 0 338 3 64 256 284 220 285 322 304 205 156 132 201 182 208 266 285 305 230 159 165 165 168 194 204 213 222 224 233 239 245 261
355 353 351 349 347 347 347 346 346 344 347 354 359 32 49 46 56 81 95 100 105 108 104 125 149 111 272 281 302 285 281 284 291 299 291 262 235 205 161 144 164 166 152 190 186 136 133 138 66 146 63 62 105 104 46 330 295 317 21 239 254 219 245 299 311 300 135 119 189 217 234 248 271 332 189 174 168 167 176 200 210 214 224 231 232 246 246 248
354 352 351 349 346 346 346 345 345 344 349 4 46 65 64 68 69 87 103 105 108 103 67 54 119 100 281 286 291 281 300 309 318 313 302 286 225 189 152 130 131 131 118 75 145 130 14 13 75 30 4 36 103 112 155 241 223 219 213 212 270 256 230 251 281 284 135 111 175 190 242 256 267 336 184 201 178 180 195 202 211 216 223 233 231 240 244 242
352 351 350 348 346 346 345 345 345 345 352 14 94 73 62 75 72 93 111 109 105 100 269 224 157 178 257 258 258 285 305 313 313 302 286 171 181 168 133 119 120 117 126 108 153 158 142 30 65 209 261 229 197 169 195 219 183 173 186 166 206 253 259 236 249 251 182 123 177 186 221 252 259 235 200 202 188 199 223 222 222 222 224 232 229 237 241 240
350 350 348 347 345 344 344 344 346 350 356 11 137 89 42 44 37 39 64 141 206 231 243 236 208 232 273 275 273 300 311 311 299 271 217 128 146 141 106 91 86 85 136 143 169 153 127 172 228 225 223 220 210 200 208 197 147 147 133 149 213 233 273 258 255 268 184 150 236 209 215 250 256 240 201 183 184 213 232 235 238 233 225 225 227 236 237 238
350 349 347 346 343 342 344 343 349 2 2 22 80 83 75 54 20 319 311 284 246 226 237 242 225 235 253 251 273 357 342 317 282 259 260 182 143 134 127 112 110 178 171 116 119 80 115 188 234 233 224 225 212 200 206 154 140 156 134 201 267 236 258 263 253 281 178 166 266 227 214 254 258 234 183 170 182 213 217 216 229 231 226 224 227 236 238 243
350 349 346 345 341 341 343 341 353 12 13 56 69 88 118 58 333 269 285 299 273 223 225 243 236 245 252 252 267 273 234 281 291 287 239 177 152 145 158 132 147 187 121 95 103 50 158 226 246 241 214 204 199 163 184 193 178 157 131 187 275 252 271 287 288 317 138 172 273 238 207 256 267 231 190 188 196 214 213 212 226 226 223 227 225 231 238 249
349 349 347 343 340 340 342 345 6 13 16 67 73 92 80 355 349 281 159 292 287 237 222 239 233 250 260 260 242 204 185 216 261 283 179 158 167 169 154 145 153 143 114 152 156 145 205 244 248 241 175 177 227 159 156 184 193 169 152 165 248 252 272 289 298 340 100 177 208 192 217 274 288 273 224 210 208 220 214 217 234 231 222 230 228 226 228 235
349 349 347 342 340 341 344 358 23 4 5 54 78 64 353 345 359 87 156 260 295 282 240 222 209 231 252 259 197 175 187 200 202 250 177 159 154 151 159 148 139 153 184 184 164 179 230 245 242 215 168 179 197 141 150 163 213 234 192 189 225 237 210 225 278 348 345 331 100 109 6 305 283 264 262 233 209 232 220 211 229 232 227 232 239 235 224 226
349 349 347 342 342 346 352 43 15 357 358 123 44 354 340 343 353 60 152 18 303 286 289 218 233 235 249 236 167 174 190 209 208 214 174 164 155 132 164 146 140 186 196 171 159 219 248 240 158 121 142 156 141 155 190 172 192 273 225 208 217 219 220 230 331 28 14 343 313 104 18 294 302 269 259 215 194 228 212 204 225 230 228 225 235 238 230 232
350 349 347 344 345 357 17 71 359 358 7 62 347 337 335 341 347 101 129 33 319 284 328 4 273 290 305 160 167 166 99 266 233 200 186 181 168 138 143 158 144 190 176 148 160 238 251 222 185 145 131 148 146 201 235 179 149 275 236 210 213 213 218 223 138 84 38 270 292 78 158 259 316 290 257 197 198 232 217 217 230 225 222 219 226 233 227 231
351 349 347 347 356 14 38 18 349 4 30 325 332 334 333 336 343 144 105 23 316 283 336 315 312 0 323 228 173 129 136 273 274 190 191 186 176 117 147 174 144 167 147 114 215 234 203 206 193 144 131 150 163 230 228 170 138 236 234 179 182 197 207 202 152 155 228 247 322 17 131 231 297 272 269 188 194 245 238 231 237 226 222 220 223 227 222 223
352 350 348 354 10 26 36 0 348 8 340 321 327 331 330 331 337 144 74 43 285 313 95 300 327 329 325 320 171 175 216 267 353 281 206 179 180 92 165 196 172 166 152 139 212 237 167 189 191 160 150 173 197 213 185 157 153 244 214 130 145 177 178 148 129 165 240 357 307 311 123 185 273 270 310 94 188 250 242 229 230 224 221 218 221 223 221 221
353 352 351 3 19 20 12 354 344 344 331 327 329 330 325 326 20 96 66 105 272 1 74 315 344 326 328 356 167 286 316 332 263 301 33 172 203 130 166 207 155 157 174 172 218 245 159 207 190 156 165 202 215 203 168 165 187 222 134 96 76 71 82 87 113 148 63 23 254 258 183 181 273 277 315 61 205 244 239 232 226 223 223 219 222 222 219 218
355 354 358 17 28 12 359 345 342 338 331 331 331 327 326 354 68 69 46 237 290 354 335 359 1 327 336 8 354 315 313 294 296 334 66 155 266 35 104 114 102 132 194 233 248 249 255 272 165 151 180 190 150 109 165 170 160 138 101 70 52 40 43 48 70 105 89 284 256 247 211 169 276 277 236 184 220 222 221 234 229 222 223 221 221 217 211 209
355 356 12 36 39 22 7 340 339 337 330 335 333 330 355 55 58 96 197 248 291 344 344 1 350 339 352 12 349 323 322 317 333 358 29 112 56 34 47 67 75 73 6 277 264 254 263 283 218 206 172 118 90 64 28 44 104 108 81 70 73 352 7 20 359 37 121 259 266 256 218 144 206 267 244 226 245 225 200 214 215 209 213 217 216 209 202 201
355 359 29 42 33 22 11 342 338 338 336 339 338 353 74 53 32 146 249 288 340 346 341 334 331 337 342 358 1 337 339 341 344 7 358 115 124 120 56 79 188 98 305 252 250 285 253 231 220 237 158 126 106 68 34 7 35 82 82 81 84 349 358 357 317 334 223 250 259 243 211 156 228 256 256 250 255 240 211 208 208 202 204 210 208 202 194 188
354 356 28 31 21 12 3 350 343 341 341 342 349 59 71 82 199 248 314 349 336 311 304 301 317 321 330 16 6 337 345 1 350 352 336 100 120 89 45 30 18 102 202 248 266 290 286 291 215 180 216 156 146 139 140 241 130 129 127 115 117 105 62 317 281 295 270 264 266 251 240 277 277 269 248 241 251 248 226 212 208 199 199 204 201 190 180 179
352 355 22 21 16 6 357 352 344 340 344 352 37 69 68 116 240 286 0 343 268 295 301 307 320 321 355 55 6 347 5 347 348 2 7 34 54 28 29 21 14 31 85 35 338 203 251 305 224 180 200 179 177 179 160 140 132 164 148 124 139 153 142 225 231 212 263 278 286 275 223 189 239 257 230 232 264 276 241 212 204 198 195 187 171 157 162 180
349 355 25 16 10 1 353 347 340 341 352 17 68 65 97 178 270 296 341 296 280 315 309 329 356 355 8 12 348 2 21 312 345 16 36 48 44 5 349 3 15 24 29 54 298 189 222 270 249 240 196 173 182 180 130 112 92 223 120 106 146 180 148 155 201 180 198 303 286 263 227 215 225 263 274 275 305 320 189 169 162 163 145 121 139 161 171 186
351 2 34 9 2 355 347 341 334 341 5 66 73 63 150 193 254 180 269 301 293 307 313 345 19 34 4 343 347 356 356 354 2 12 46 64 48 18 355 336 13 28 24 211 230 252 232 268 278 316 337 194 182 151 129 144 155 152 135 158 211 171 125 110 237 299 62 60 276 264 258 289 316 301 312 0 0 1 66 135 148 152 142 142 172 183 179 187
354 2 27 3 356 348 340 334 332 347 40 81 84 111 200 199 207 215 296 313 278 298 29 26 7 28 4 344 355 350 342 353 9 9 28 37 18 12 360 328 342 7 343 250 235 240 222 277 287 247 256 299 94 104 69 33 129 130 186 204 182 99 89 99 129 349 38 149 283 305 249 288 345 303 321 8 12 328 306 139 123 135 153 171 190 190 190 192
347 352 23 357 351 346 343 340 346 29 70 71 72 113 179 208 211 235 313 314 288 32 61 63 329 11 31 9 343 341 346 352 358 7 29 19 348 7 12 333 310 341 327 284 219 273 246 284 292 256 164 301 33 81 43 359 104 129 179 175 128 110 149 75 105 276 340 258 290 303 277 263 203 223 286 298 217 238 249 166 136 166 183 191 197 196 197 188
352 16 39 350 350 353 9 30 50 59 67 68 66 109 143 269 296 336 332 327 37 62 60 75 340 5 43 37 329 323 357 7 348 4 42 12 305 358 29 3 306 332 334 345 67 293 284 182 283 297 149 138 62 86 178 227 10 52 95 121 105 132 163 156 145 167 189 237 264 307 323 274 226 217 209 216 217 211 201 183 186 198 198 197 194 191 192 187
21 62 305 345 351 353 23 54 63 50 60 101 163 210 11 308 311 336 349 13 57 61 56 61 13 28 16 0 353 333 353 357 354 22 52 1 318 332 18 11 332 328 328 338 27 317 315 164 255 301 318 150 155 195 188 188 180 126 116 157 152 92 99 193 201 139 142 166 191 273 318 271 250 216 193 207 209 196 190 190 198 206 205 204 197 189 188 190
41 59 297 344 351 337 13 49 52 46 82 98 73 315 8 30 346 338 348 21 53 67 81 87 52 46 10 343 5 350 342 348 5 41 58 14 11 338 354 2 341 326 321 326 1 4 359 15 244 296 302 205 221 231 193 193 200 172 165 182 167 120 88 195 282 291 130 149 173 161 281 274 260 213 211 219 202 194 190 184 196 207 206 206 202 194 191 191
56 72 313 348 351 344 55 57 2 44 97 88 32 348 339 28 30 347 347 17 49 56 56 65 60 50 36 346 347 346 4 17 1 40 69 6 15 322 323 338 331 322 330 345 319 306 146 73 323 273 254 231 256 272 181 186 209 165 191 174 138 124 135 166 231 261 185 150 161 124 221 275 265 233 243 252 243 214 190 177 196 212 205 202 202 197 195 198
75 206 324 355 354 0 77 57 318 13 39 277 350 295 320 41 46 355 4 22 37 40 32 30 23 39 49 355 339 351 11 34 16 44 72 5 351 323 312 325 332 333 359 12 320 299 245 48 327 283 285 284 289 323 19 74 100 66 280 145 125 163 179 170 182 175 157 182 153 108 274 271 274 283 256 235 194 163 186 186 195 206 205 198 196 196 198 203
88 236 307 2 12 63 102 82 208 20 334 317 19 13 349 47 59 16 28 15 6 60 64 24 359 17 11 340 22 358 346 55 50 32 62 41 333 311 312 326 338 344 359 345 322 325 341 349 11 345 344 345 331 339 354 359 48 203 249 171 153 171 157 130 137 131 282 236 160 142 248 260 273 319 346 165 134 139 197 205 193 197 203 198 196 198 195 190
47 165 264 355 22 57 110 145 147 129 23 16 39 23 6 36 35 34 67 26 4 82 95 22 0 26 2 0 23 4 356 68 73 24 71 18 301 290 313 328 332 346 349 327 322 347 46 0 70 71 46 240 224 219 274 336 327 289 273 207 182 162 151 152 153 168 247 251 157 160 231 266 290 321 352 356 159 180 221 225 204 207 206 198 197 195 190 183
61 68 294 335 16 47 83 91 93 107 106 82 55 26 31 48 326 342 72 57 9 36 74 30 10 27 22 28 34 11 1 10 26 35 10 321 316 276 311 318 320 356 351 336 336 26 104 66 87 110 180 215 242 254 268 315 300 279 281 242 212 194 176 151 114 167 200 185 202 222 222 270 296 300 309 301 252 225 228 218 216 217 201 190 186 178 181 183
82 115 54 342 353 22 32 21 33 52 114 116 89 12 1 13 337 347 39 58 13 28 59 36 29 41 17 20 47 20 351 347 10 19 342 315 320 302 308 301 275 3 355 340 340 25 84 27 10 20 248 239 251 265 274 285 269 264 273 257 223 201 182 161 180 203 157 128 261 255 197 225 271 272 274 267 240 227 224 215 219 214 187 173 165 158 170 178
71 143 153 113 85 50 44 4 8 37 57 85 95 49 14 28 38 14 353 8 16 27 56 32 18 24 335 327 92 44 356 353 355 345 318 311 327 324 326 313 215 16 4 343 339 42 101 228 313 338 314 288 270 261 265 279 276 262 254 246 232 190 177 196 217 211 158 180 250 253 156 212 256 280 292 280 250 233 225 212 204 177 152 149 151 161 177 182
71 106 315 36 95 160 184 327 348 52 53 50 51 44 44 42 38 310 292 22 12 353 55 72 345 342 352 40 107 85 17 8 324 314 301 323 326 320 323 315 279 40 25 353 334 52 98 292 298 327 316 308 305 282 283 316 314 284 252 243 235 192 189 202 217 220 197 223 260 61 176 232 263 336 323 310 294 271 235 168 160 158 157 158 164 177 187 188
78 117 256 57 64 123 255 5 29 67 39 26 43 41 40 53 33 337 340 72 64 319 30 88 277 304 25 64 82 88 125 192 240 261 271 316 318 294 273 283 283 347 13 8 334 0 39 312 298 345 324 312 325 331 326 331 324 302 327 354 1 73 176 222 358 5 319 280 320 1 244 250 317 344 325 316 304 271 205 186 190 183 172 167 173 185 191 192
78 121 120 101 54 353 359 8 51 82 39 10 49 49 15 24 1 325 0 48 119 195 347 171 200 223 30 45 44 0 307 277 249 251 253 256 254 252 259 257 281 327 352 12 326 347 35 328 308 15 347 304 328 340 329 325 322 349 24 1 357 49 66 44 43 29 344 283 304 332 286 288 324 331 324 324 323 298 248 224 208 192 180 177 185 193 193 195
58 84 79 102 82 1 9 7 30 74 94 329 327 283 275 298 293 155 115 21 36 95 227 223 186 119 40 28 8 325 306 291 269 261 258 246 241 245 248 250 258 269 283 343 324 292 86 33 334 18 340 292 325 331 317 316 335 25 23 345 332 71 82 61 52 36 8 336 357 7 313 303 316 325 325 325 327 315 289 264 236 216 200 190 192 194 193 196